ZDPS 2A (40901 NORAD) Tracking and Keplerian Element Data

This shows tracking and keplerian element data for the satellite.

Feedback or suggestion? Click here.




ElementValue
Catalog40901
NameZDPS 2A
Epoch Orbit39732
Epoch Day324.99318358
Epoch Year2022
RAAN333.3771
Inclination97.4574
Eccentricity0.0011792
Argument of Perigee142.9405
Mean Anonmoly217.2651
Mean Motion15.27912255
Decay Rate0.00011906
L11 40901U 15049C 22324.99318358 .00011906 00000+0 43868-3 0 9990
L22 40901 97.4574 333.3771 0011792 142.9405 217.2651 15.27912255397321



Live tracking and technical data element details for ZDPS 2A (NORAD 40901). ZDPS 2A can be tracked NOW for your location showing map with azimuth and elevation plus other details from your city location.







IsCatalogInMostPopularTable: catalog: 40901, numindb: 518
Update: records affected: 1



GetName: 40901 ZDPS 2A

Hit Count: updated at: Mon, 28 Nov 2022 05:56:49 GMT